Today

Time Wind Dr Wind Spd
mph
Wind Gust
mph
Hum In
%
Humid
%
TempI
F
Temp
F
Raw Bar
in
Tot Rain
in
UV Solar
W/sqm
DailyRain
in
HourRain
in
24HrRain
in
RainRate
in
09/05/26 12:01:31 AM 29 0.0 0.0 47 55 72.9 66.4 29.941 7.41 0.0 0 0.00 0.00 0.00 0.00
09/05/26 12:02:23 AM 32 0.0 0.0 47 55 72.8 66.4 29.941 7.41 0.0 0 0.00 0.00 0.00 0.00
09/05/26 12:03:32 AM 29 0.0 0.0 47 55 72.8 66.3 29.941 7.41 0.0 0 0.00 0.00 0.00 0.00
09/05/26 12:04:24 AM 35 0.0 0.0 47 55 72.8 66.3 29.941 7.41 0.0 0 0.00 0.00 0.00 0.00
09/05/26 12:05:18 AM 29 0.0 0.0 47 55 72.8 66.3 29.942 7.41 0.0 0 0.00 0.00 0.00 0.00
09/05/26 12:06:30 AM 25 0.0 0.0 47 55 72.8 66.2 29.943 7.41 0.0 0 0.00 0.00 0.00 0.00
09/05/26 12:07:22 AM 32 0.0 0.0 47 55 72.8 66.2 29.942 7.41 0.0 0 0.00 0.00 0.00 0.00
09/05/26 12:08:31 AM 32 0.0 0.0 47 55 72.8 66.2 29.940 7.41 0.0 0 0.00 0.00 0.00 0.00
09/05/26 12:09:22 AM 32 0.0 0.0 47 55 72.8 66.1 29.940 7.41 0.0 0 0.00 0.00 0.00 0.00
09/05/26 12:10:35 AM 29 0.0 0.0 47 55 72.8 66.1 29.940 7.41 0.0 0 0.00 0.00 0.00 0.00
09/05/26 12:11:26 AM 29 0.0 0.0 47 55 72.7 66.0 29.939 7.41 0.0 0 0.00 0.00 0.00 0.00
09/05/26 12:12:35 AM 34 0.0 0.0 47 56 72.7 66.0 29.942 7.41 0.0 0 0.00 0.00 0.00 0.00
09/05/26 12:13:27 AM 29 0.0 0.0 47 56 72.7 65.9 29.942 7.41 0.0 0 0.00 0.00 0.00 0.00
09/05/26 12:14:36 AM 30 0.0 0.0 47 56 72.7 65.9 29.942 7.41 0.0 0 0.00 0.00 0.00 0.00
09/05/26 12:15:31 AM 30 0.0 0.0 47 56 72.7 65.8 29.944 7.41 0.0 0 0.00 0.00 0.00 0.00
09/05/26 12:16:16 AM 28 0.0 0.0 47 56 72.7 65.8 29.943 7.41 0.0 0 0.00 0.00 0.00 0.00
09/05/26 12:17:29 AM 30 0.0 0.0 47 56 72.6 65.8 29.944 7.41 0.0 0 0.00 0.00 0.00 0.00
09/05/26 12:18:21 AM 29 0.0 0.0 47 56 72.7 65.8 29.943 7.41 0.0 0 0.00 0.00 0.00 0.00
09/05/26 12:19:30 AM 28 0.0 0.0 47 56 72.7 65.7 29.945 7.41 0.0 0 0.00 0.00 0.00 0.00
09/05/26 12:20:22 AM 32 0.0 0.0 47 56 72.7 65.7 29.945 7.41 0.0 0 0.00 0.00 0.00 0.00
09/05/26 12:21:34 AM 24 0.0 0.0 47 56 72.7 65.7 29.944 7.41 0.0 0 0.00 0.00 0.00 0.00
09/05/26 12:22:26 AM 34 0.0 0.0 47 56 72.7 65.6 29.946 7.41 0.0 0 0.00 0.00 0.00 0.00
09/05/26 12:23:17 AM 30 0.0 0.0 47 56 72.7 65.6 29.944 7.41 0.0 0 0.00 0.00 0.00 0.00
09/05/26 12:24:24 AM 29 0.0 0.0 47 56 72.7 65.6 29.946 7.41 0.0 0 0.00 0.00 0.00 0.00
09/05/26 12:25:16 AM 28 0.0 0.0 47 56 72.7 65.6 29.942 7.41 0.0 0 0.00 0.00 0.00 0.00
09/05/26 12:26:28 AM 28 0.0 0.0 47 56 72.7 65.5 29.945 7.41 0.0 0 0.00 0.00 0.00 0.00
09/05/26 12:27:20 AM 29 0.0 0.0 47 56 72.7 65.5 29.944 7.41 0.0 0 0.00 0.00 0.00 0.00
09/05/26 12:28:33 AM 32 0.0 0.0 47 56 72.7 65.4 29.945 7.41 0.0 0 0.00 0.00 0.00 0.00
09/05/26 12:29:24 AM 30 0.0 0.0 47 56 72.7 65.4 29.944 7.41 0.0 0 0.00 0.00 0.00 0.00
09/05/26 12:30:52 AM 28 0.0 0.0 47 56 72.7 65.4 29.946 7.41 0.0 0 0.00 0.00 0.00 0.00
09/05/26 12:31:25 AM 31 0.0 0.0 47 57 72.7 65.3 29.948 7.41 0.0 0 0.00 0.00 0.00 0.00
09/05/26 12:32:35 AM 31 0.0 0.0 47 57 72.6 65.3 29.947 7.41 0.0 0 0.00 0.00 0.00 0.00
09/05/26 12:33:26 AM 32 0.0 0.0 47 57 72.6 65.3 29.948 7.41 0.0 0 0.00 0.00 0.00 0.00
09/05/26 12:34:21 AM 32 0.0 0.0 47 57 72.7 65.2 29.946 7.41 0.0 0 0.00 0.00 0.00 0.00
09/05/26 12:35:28 AM 34 0.0 0.0 47 57 72.6 65.2 29.949 7.41 0.0 0 0.00 0.00 0.00 0.00
09/05/26 12:36:22 AM 30 0.0 0.0 47 57 72.6 65.2 29.950 7.41 0.0 0 0.00 0.00 0.00 0.00
09/05/26 12:37:35 AM 28 0.0 0.0 47 57 72.6 65.1 29.946 7.41 0.0 0 0.00 0.00 0.00 0.00
09/05/26 12:38:26 AM 32 0.0 0.0 47 57 72.6 65.1 29.948 7.41 0.0 0 0.00 0.00 0.00 0.00
09/05/26 12:39:18 AM 29 0.0 0.0 47 57 72.6 65.0 29.947 7.41 0.0 0 0.00 0.00 0.00 0.00
09/05/26 12:40:31 AM 28 0.0 0.0 47 57 72.6 65.0 29.951 7.41 0.0 0 0.00 0.00 0.00 0.00
09/05/26 12:41:19 AM 34 0.0 0.0 47 57 72.6 65.0 29.950 7.41 0.0 0 0.00 0.00 0.00 0.00
09/05/26 12:42:32 AM 29 0.0 0.0 47 57 72.6 64.9 29.949 7.41 0.0 0 0.00 0.00 0.00 0.00
09/05/26 12:43:23 AM 28 0.0 0.0 47 57 72.6 64.9 29.949 7.41 0.0 0 0.00 0.00 0.00 0.00
09/05/26 12:44:18 AM 32 0.0 0.0 47 58 72.6 64.9 29.948 7.41 0.0 0 0.00 0.00 0.00 0.00
09/05/26 12:45:52 AM 25 0.0 0.0 47 58 72.6 64.8 29.950 7.41 0.0 0 0.00 0.00 0.00 0.00
09/05/26 12:46:22 AM 34 0.0 0.0 47 58 72.6 64.8 29.949 7.41 0.0 0 0.00 0.00 0.00 0.00
09/05/26 12:47:29 AM 31 0.0 0.0 47 58 72.6 64.7 29.949 7.41 0.0 0 0.00 0.00 0.00 0.00
09/05/26 12:48:23 AM 30 0.0 0.0 47 58 72.6 64.7 29.951 7.41 0.0 0 0.00 0.00 0.00 0.00
09/05/26 12:49:33 AM 32 0.0 0.0 47 58 72.6 64.7 29.949 7.41 0.0 0 0.00 0.00 0.00 0.00
09/05/26 12:50:25 AM 30 0.0 0.0 47 59 72.5 64.6 29.948 7.41 0.0 0 0.00 0.00 0.00 0.00
09/05/26 12:51:19 AM 30 0.0 0.0 47 59 72.5 64.6 29.949 7.41 0.0 0 0.00 0.00 0.00 0.00
09/05/26 12:52:26 AM 32 0.0 0.0 47 59 72.5 64.5 29.949 7.41 0.0 0 0.00 0.00 0.00 0.00
09/05/26 12:53:17 AM 31 0.0 0.0 47 59 72.5 64.5 29.947 7.41 0.0 0 0.00 0.00 0.00 0.00
09/05/26 12:54:30 AM 29 0.0 0.0 47 59 72.5 64.5 29.951 7.41 0.0 0 0.00 0.00 0.00 0.00
09/05/26 12:55:22 AM 28 0.0 0.0 47 59 72.5 64.5 29.950 7.41 0.0 0 0.00 0.00 0.00 0.00
09/05/26 12:56:34 AM 29 0.0 0.0 47 59 72.5 64.5 29.951 7.41 0.0 0 0.00 0.00 0.00 0.00
09/05/26 12:57:23 AM 26 0.0 0.0 47 59 72.5 64.4 29.949 7.41 0.0 0 0.00 0.00 0.00 0.00
09/05/26 12:58:36 AM 32 0.0 0.0 47 59 72.5 64.4 29.950 7.41 0.0 0 0.00 0.00 0.00 0.00
09/05/26 12:59:27 AM 31 0.0 0.0 47 59 72.5 64.4 29.950 7.41 0.0 0 0.00 0.00 0.00 0.00
09/05/26 1:00:22 AM 29 0.0 0.0 47 59 72.5 64.4 29.949 7.41 0.0 0 0.00 0.00 0.00 0.00
09/05/26 1:01:31 AM 32 0.0 0.0 47 59 72.5 64.3 29.951 7.41 0.0 0 0.00 0.00 0.00 0.00
09/05/26 1:02:23 AM 32 0.0 0.0 47 59 72.5 64.3 29.950 7.41 0.0 0 0.00 0.00 0.00 0.00
09/05/26 1:03:30 AM 28 0.0 0.0 47 59 72.5 64.3 29.950 7.41 0.0 0 0.00 0.00 0.00 0.00
09/05/26 1:04:21 AM 32 0.0 0.0 47 59 72.4 64.3 29.951 7.41 0.0 0 0.00 0.00 0.00 0.00
09/05/26 1:05:34 AM 30 0.0 0.0 47 59 72.4 64.3 29.947 7.41 0.0 0 0.00 0.00 0.00 0.00
09/05/26 1:06:25 AM 31 0.0 0.0 47 59 72.5 64.3 29.949 7.41 0.0 0 0.00 0.00 0.00 0.00
09/05/26 1:07:17 AM 31 0.0 0.0 47 59 72.5 64.2 29.949 7.41 0.0 0 0.00 0.00 0.00 0.00
09/05/26 1:08:24 AM 32 0.0 0.0 47 59 72.5 64.3 29.950 7.41 0.0 0 0.00 0.00 0.00 0.00
09/05/26 1:09:18 AM 32 0.0 0.0 47 59 72.4 64.3 29.950 7.41 0.0 0 0.00 0.00 0.00 0.00
09/05/26 1:10:28 AM 31 0.0 0.0 47 59 72.5 64.2 29.950 7.41 0.0 0 0.00 0.00 0.00 0.00
09/05/26 1:11:19 AM 35 0.0 0.0 47 59 72.4 64.2 29.949 7.41 0.0 0 0.00 0.00 0.00 0.00
09/05/26 1:12:32 AM 31 0.0 0.0 47 59 72.5 64.2 29.951 7.41 0.0 0 0.00 0.00 0.00 0.00
09/05/26 1:13:21 AM 31 0.0 0.0 47 59 72.4 64.2 29.951 7.41 0.0 0 0.00 0.00 0.00 0.00
09/05/26 1:14:30 AM 28 0.0 0.0 47 59 72.4 64.2 29.952 7.41 0.0 0 0.00 0.00 0.00 0.00
09/05/26 1:15:25 AM 32 0.0 0.0 47 59 72.4 64.2 29.952 7.41 0.0 0 0.00 0.00 0.00 0.00
09/05/26 1:16:35 AM 32 0.0 0.0 47 59 72.4 64.1 29.952 7.41 0.0 0 0.00 0.00 0.00 0.00
09/05/26 1:17:26 AM 28 0.0 0.0 47 59 72.4 64.1 29.952 7.41 0.0 0 0.00 0.00 0.00 0.00
09/05/26 1:18:21 AM 28 0.0 0.0 47 59 72.4 64.1 29.952 7.41 0.0 0 0.00 0.00 0.00 0.00
09/05/26 1:19:27 AM 28 0.0 0.0 47 59 72.4 64.1 29.952 7.41 0.0 0 0.00 0.00 0.00 0.00
09/05/26 1:20:19 AM 31 0.0 0.0 47 59 72.4 64.0 29.952 7.41 0.0 0 0.00 0.00 0.00 0.00
09/05/26 1:21:32 AM 31 0.0 0.0 47 59 72.4 64.0 29.952 7.41 0.0 0 0.00 0.00 0.00 0.00
09/05/26 1:22:23 AM 31 0.0 0.0 47 59 72.4 64.0 29.950 7.41 0.0 0 0.00 0.00 0.00 0.00
09/05/26 1:23:33 AM 30 0.0 0.0 47 59 72.3 63.9 29.947 7.41 0.0 0 0.00 0.00 0.00 0.00
09/05/26 1:24:22 AM 31 0.0 0.0 47 59 72.4 63.9 29.949 7.41 0.0 0 0.00 0.00 0.00 0.00
09/05/26 1:25:34 AM 30 0.0 0.0 47 60 72.4 63.9 29.949 7.41 0.0 0 0.00 0.00 0.00 0.00
09/05/26 1:26:26 AM 28 0.0 0.0 47 60 72.3 63.9 29.947 7.41 0.0 0 0.00 0.00 0.00 0.00
09/05/26 1:27:17 AM 32 0.0 0.0 47 60 72.3 63.9 29.948 7.41 0.0 0 0.00 0.00 0.00 0.00
09/05/26 1:28:27 AM 26 0.0 0.0 47 60 72.3 63.9 29.946 7.41 0.0 0 0.00 0.00 0.00 0.00
09/05/26 1:29:34 AM 30 0.0 0.0 47 60 72.3 63.9 29.947 7.41 0.0 0 0.00 0.00 0.00 0.00
09/05/26 1:30:28 AM 34 0.0 0.0 47 60 72.3 63.9 29.948 7.41 0.0 0 0.00 0.00 0.00 0.00
09/05/26 1:31:20 AM 30 0.0 0.0 47 60 72.3 63.9 29.945 7.41 0.0 0 0.00 0.00 0.00 0.00
09/05/26 1:32:33 AM 32 0.0 0.0 47 60 72.3 63.9 29.945 7.41 0.0 0 0.00 0.00 0.00 0.00
09/05/26 1:33:21 AM 32 0.0 0.0 47 60 72.3 63.9 29.946 7.41 0.0 0 0.00 0.00 0.00 0.00
09/05/26 1:34:31 AM 31 0.0 0.0 47 60 72.3 63.9 29.945 7.41 0.0 0 0.00 0.00 0.00 0.00
09/05/26 1:35:22 AM 32 0.0 0.0 47 60 72.3 63.9 29.942 7.41 0.0 0 0.00 0.00 0.00 0.00
09/05/26 1:36:35 AM 28 0.0 0.0 47 60 72.2 63.9 29.944 7.41 0.0 0 0.00 0.00 0.00 0.00
09/05/26 1:37:27 AM 31 0.0 0.0 47 60 72.2 63.9 29.943 7.41 0.0 0 0.00 0.00 0.00 0.00
09/05/26 1:38:18 AM 26 2.0 2.0 47 60 72.2 63.9 29.943 7.41 0.0 0 0.00 0.00 0.00 0.00
09/05/26 1:39:31 AM 28 1.0 3.0 47 60 72.2 63.9 29.941 7.41 0.0 0 0.00 0.00 0.00 0.00
09/05/26 1:40:20 AM 30 2.0 3.0 47 60 72.2 63.9 29.943 7.41 0.0 0 0.00 0.00 0.00 0.00
09/05/26 1:41:32 AM 31 1.0 3.0 47 60 72.2 63.9 29.942 7.41 0.0 0 0.00 0.00 0.00 0.00
09/05/26 1:42:27 AM 35 1.0 3.0 47 60 72.2 63.8 29.941 7.41 0.0 0 0.00 0.00 0.00 0.00
09/05/26 1:43:18 AM 31 2.0 3.0 47 60 72.2 63.8 29.944 7.41 0.0 0 0.00 0.00 0.00 0.00
09/05/26 1:44:31 AM 32 2.0 3.0 47 60 72.2 63.8 29.942 7.41 0.0 0 0.00 0.00 0.00 0.00
09/05/26 1:45:20 AM 32 2.0 3.0 47 60 72.1 63.7 29.941 7.41 0.0 0 0.00 0.00 0.00 0.00
09/05/26 1:46:29 AM 30 3.0 3.0 47 60 72.1 63.6 29.940 7.41 0.0 0 0.00 0.00 0.00 0.00
09/05/26 1:47:21 AM 32 3.0 3.0 47 60 72.1 63.5 29.941 7.41 0.0 0 0.00 0.00 0.00 0.00
09/05/26 1:48:34 AM 28 2.0 3.0 47 60 72.1 63.5 29.940 7.41 0.0 0 0.00 0.00 0.00 0.00
09/05/26 1:49:25 AM 29 2.0 3.0 47 60 72.1 63.4 29.941 7.41 0.0 0 0.00 0.00 0.00 0.00
09/05/26 1:50:20 AM 28 3.0 3.0 47 60 72.0 63.4 29.940 7.41 0.0 0 0.00 0.00 0.00 0.00
09/05/26 1:51:27 AM 31 2.0 3.0 47 60 72.0 63.3 29.939 7.41 0.0 0 0.00 0.00 0.00 0.00
09/05/26 1:52:18 AM 30 2.0 3.0 47 60 72.0 63.2 29.936 7.41 0.0 0 0.00 0.00 0.00 0.00
09/05/26 1:53:31 AM 31 1.0 3.0 47 60 72.0 63.2 29.935 7.41 0.0 0 0.00 0.00 0.00 0.00
09/05/26 1:54:23 AM 31 1.0 3.0 47 60 72.0 63.2 29.935 7.41 0.0 0 0.00 0.00 0.00 0.00
09/05/26 1:55:35 AM 32 0.0 3.0 47 60 72.0 63.2 29.935 7.41 0.0 0 0.00 0.00 0.00 0.00
09/05/26 1:56:24 AM 30 0.0 3.0 47 60 72.0 63.2 29.938 7.41 0.0 0 0.00 0.00 0.00 0.00
09/05/26 1:57:34 AM 31 0.0 3.0 47 60 72.0 63.1 29.936 7.41 0.0 0 0.00 0.00 0.00 0.00
09/05/26 1:58:28 AM 28 0.0 3.0 47 60 72.0 63.1 29.940 7.41 0.0 0 0.00 0.00 0.00 0.00
09/05/26 1:59:20 AM 34 0.0 3.0 47 60 72.0 63.1 29.940 7.41 0.0 0 0.00 0.00 0.00 0.00
09/05/26 2:00:33 AM 31 0.0 3.0 47 60 72.0 63.1 29.938 7.41 0.0 0 0.00 0.00 0.00 0.00
09/05/26 2:01:21 AM 31 0.0 3.0 47 60 71.9 63.1 29.940 7.41 0.0 0 0.00 0.00 0.00 0.00
09/05/26 2:02:34 AM 35 0.0 3.0 47 60 71.9 63.0 29.940 7.41 0.0 0 0.00 0.00 0.00 0.00
09/05/26 2:03:25 AM 31 0.0 3.0 47 60 71.9 63.0 29.939 7.41 0.0 0 0.00 0.00 0.00 0.00
09/05/26 2:04:17 AM 30 0.0 3.0 47 60 71.9 63.0 29.939 7.41 0.0 0 0.00 0.00 0.00 0.00
09/05/26 2:05:30 AM 31 0.0 3.0 47 60 71.9 62.9 29.936 7.41 0.0 0 0.00 0.00 0.00 0.00
09/05/26 2:06:22 AM 35 0.0 3.0 47 60 71.9 62.9 29.936 7.41 0.0 0 0.00 0.00 0.00 0.00
09/05/26 2:07:28 AM 30 0.0 3.0 47 60 71.9 62.8 29.935 7.41 0.0 0 0.00 0.00 0.00 0.00
09/05/26 2:08:20 AM 30 0.0 3.0 47 60 71.8 62.8 29.935 7.41 0.0 0 0.00 0.00 0.00 0.00
09/05/26 2:09:33 AM 30 0.0 3.0 47 60 71.9 62.7 29.936 7.41 0.0 0 0.00 0.00 0.00 0.00
09/05/26 2:10:24 AM 31 0.0 3.0 47 60 71.9 62.7 29.935 7.41 0.0 0 0.00 0.00 0.00 0.00
09/05/26 2:11:16 AM 23 0.0 3.0 47 60 71.9 62.7 29.935 7.41 0.0 0 0.00 0.00 0.00 0.00
09/05/26 2:12:26 AM 29 0.0 3.0 47 60 71.9 62.6 29.934 7.41 0.0 0 0.00 0.00 0.00 0.00
09/05/26 2:13:17 AM 30 0.0 3.0 47 60 71.9 62.5 29.932 7.41 0.0 0 0.00 0.00 0.00 0.00
09/05/26 2:14:27 AM 34 0.0 3.0 47 60 71.9 62.4 29.932 7.41 0.0 0 0.00 0.00 0.00 0.00
09/05/26 2:15:22 AM 31 0.0 3.0 47 60 71.9 62.4 29.935 7.41 0.0 0 0.00 0.00 0.00 0.00
09/05/26 2:16:31 AM 25 0.0 3.0 47 61 71.9 62.3 29.931 7.41 0.0 0 0.00 0.00 0.00 0.00
09/05/26 2:17:20 AM 30 0.0 3.0 47 61 71.9 62.3 29.936 7.41 0.0 0 0.00 0.00 0.00 0.00
09/05/26 2:18:30 AM 32 0.0 3.0 47 61 71.8 62.2 29.933 7.41 0.0 0 0.00 0.00 0.00 0.00
09/05/26 2:19:21 AM 31 0.0 3.0 47 61 71.9 62.2 29.937 7.41 0.0 0 0.00 0.00 0.00 0.00
09/05/26 2:20:34 AM 28 0.0 3.0 47 61 71.8 62.2 29.936 7.41 0.0 0 0.00 0.00 0.00 0.00
09/05/26 2:21:26 AM 26 0.0 3.0 47 61 71.8 62.2 29.933 7.41 0.0 0 0.00 0.00 0.00 0.00
09/05/26 2:22:17 AM 31 0.0 3.0 47 61 71.9 62.2 29.933 7.41 0.0 0 0.00 0.00 0.00 0.00
09/05/26 2:23:27 AM 32 0.0 3.0 47 61 71.8 62.2 29.930 7.41 0.0 0 0.00 0.00 0.00 0.00
09/05/26 2:24:19 AM 32 0.0 3.0 47 62 71.8 62.2 29.931 7.41 0.0 0 0.00 0.00 0.00 0.00
09/05/26 2:25:32 AM 30 0.0 3.0 47 62 71.8 62.2 29.933 7.41 0.0 0 0.00 0.00 0.00 0.00
09/05/26 2:26:23 AM 28 0.0 3.0 47 62 71.8 62.2 29.935 7.41 0.0 0 0.00 0.00 0.00 0.00
09/05/26 2:27:36 AM 30 0.0 3.0 47 62 71.8 62.2 29.933 7.41 0.0 0 0.00 0.00 0.00 0.00
09/05/26 2:28:25 AM 32 0.0 3.0 47 62 71.8 62.2 29.931 7.41 0.0 0 0.00 0.00 0.00 0.00
09/05/26 2:29:34 AM 28 0.0 3.0 47 62 71.8 62.3 29.934 7.41 0.0 0 0.00 0.00 0.00 0.00
09/05/26 2:30:29 AM 32 0.0 3.0 47 62 71.8 62.3 29.933 7.41 0.0 0 0.00 0.00 0.00 0.00
09/05/26 2:31:20 AM 30 0.0 3.0 47 62 71.8 62.3 29.933 7.41 0.0 0 0.00 0.00 0.00 0.00
09/05/26 2:32:30 AM 29 0.0 3.0 47 63 71.8 62.3 29.932 7.41 0.0 0 0.00 0.00 0.00 0.00
09/05/26 2:33:19 AM 28 0.0 3.0 47 63 71.8 62.3 29.934 7.41 0.0 0 0.00 0.00 0.00 0.00
09/05/26 2:34:31 AM 29 0.0 3.0 47 63 71.8 62.3 29.934 7.41 0.0 0 0.00 0.00 0.00 0.00
09/05/26 2:35:23 AM 32 0.0 3.0 47 63 71.8 62.3 29.931 7.41 0.0 0 0.00 0.00 0.00 0.00
09/05/26 2:36:36 AM 32 0.0 3.0 47 63 71.8 62.3 29.933 7.41 0.0 0 0.00 0.00 0.00 0.00
09/05/26 2:37:27 AM 31 0.0 3.0 47 63 71.7 62.4 29.933 7.41 0.0 0 0.00 0.00 0.00 0.00
09/05/26 2:38:19 AM 29 0.0 3.0 47 63 71.7 62.4 29.933 7.41 0.0 0 0.00 0.00 0.00 0.00
09/05/26 2:39:26 AM 30 0.0 3.0 47 62 71.7 62.3 29.934 7.41 0.0 0 0.00 0.00 0.00 0.00
09/05/26 2:40:20 AM 32 0.0 3.0 47 62 71.8 62.3 29.934 7.41 0.0 0 0.00 0.00 0.00 0.00
09/05/26 2:41:30 AM 32 0.0 3.0 47 62 71.7 62.3 29.933 7.41 0.0 0 0.00 0.00 0.00 0.00
09/05/26 2:42:25 AM 32 0.0 3.0 47 62 71.7 62.3 29.933 7.41 0.0 0 0.00 0.00 0.00 0.00
09/05/26 2:43:17 AM 31 0.0 3.0 47 62 71.7 62.3 29.936 7.41 0.0 0 0.00 0.00 0.00 0.00
09/05/26 2:44:23 AM 28 0.0 3.0 47 62 71.7 62.3 29.935 7.41 0.0 0 0.00 0.00 0.00 0.00
09/05/26 2:45:18 AM 28 0.0 3.0 47 62 71.7 62.3 29.934 7.41 0.0 0 0.00 0.00 0.00 0.00
09/05/26 2:46:28 AM 31 0.0 3.0 47 62 71.7 62.3 29.937 7.41 0.0 0 0.00 0.00 0.00 0.00
09/05/26 2:47:19 AM 29 0.0 3.0 47 62 71.7 62.3 29.935 7.41 0.0 0 0.00 0.00 0.00 0.00
09/05/26 2:48:32 AM 30 0.0 3.0 47 62 71.7 62.2 29.935 7.41 0.0 0 0.00 0.00 0.00 0.00
09/05/26 2:49:21 AM 32 0.0 3.0 47 62 71.7 62.2 29.935 7.41 0.0 0 0.00 0.00 0.00 0.00
09/05/26 2:50:33 AM 29 0.0 3.0 47 62 71.7 62.2 29.937 7.41 0.0 0 0.00 0.00 0.00 0.00
09/05/26 2:51:25 AM 30 0.0 3.0 47 62 71.7 62.2 29.937 7.41 0.0 0 0.00 0.00 0.00 0.00
09/05/26 2:52:35 AM 28 0.0 3.0 47 62 71.7 62.2 29.934 7.41 0.0 0 0.00 0.00 0.00 0.00
09/05/26 2:53:27 AM 31 0.0 3.0 47 62 71.7 62.1 29.937 7.41 0.0 0 0.00 0.00 0.00 0.00
09/05/26 2:54:15 AM 32 0.0 3.0 47 62 71.7 62.1 29.937 7.41 0.0 0 0.00 0.00 0.00 0.00
09/05/26 2:55:25 AM 32 0.0 3.0 47 63 71.7 62.1 29.935 7.41 0.0 0 0.00 0.00 0.00 0.00
09/05/26 2:56:16 AM 25 0.0 3.0 47 63 71.7 62.1 29.935 7.41 0.0 0 0.00 0.00 0.00 0.00
09/05/26 2:57:29 AM 29 0.0 3.0 47 63 71.7 62.0 29.934 7.41 0.0 0 0.00 0.00 0.00 0.00
09/05/26 2:58:21 AM 32 0.0 3.0 47 63 71.7 62.0 29.934 7.41 0.0 0 0.00 0.00 0.00 0.00
09/05/26 2:59:30 AM 31 0.0 3.0 47 63 71.7 62.0 29.933 7.41 0.0 0 0.00 0.00 0.00 0.00
09/05/26 3:00:22 AM 29 0.0 3.0 47 64 71.7 62.0 29.935 7.41 0.0 0 0.00 0.00 0.00 0.00
09/05/26 3:01:32 AM 32 0.0 3.0 47 64 71.6 62.0 29.933 7.41 0.0 0 0.00 0.00 0.00 0.00
09/05/26 3:02:23 AM 31 1.0 3.0 47 64 71.6 62.0 29.934 7.41 0.0 0 0.00 0.00 0.00 0.00
09/05/26 3:03:36 AM 28 2.0 3.0 47 64 71.6 62.0 29.933 7.41 0.0 0 0.00 0.00 0.00 0.00
09/05/26 3:04:28 AM 28 2.0 3.0 47 64 71.6 62.0 29.934 7.41 0.0 0 0.00 0.00 0.00 0.00
09/05/26 3:05:16 AM 32 1.0 3.0 47 64 71.6 62.0 29.932 7.41 0.0 0 0.00 0.00 0.00 0.00
09/05/26 3:06:29 AM 32 2.0 3.0 47 64 71.7 62.0 29.933 7.41 0.0 0 0.00 0.00 0.00 0.00
09/05/26 3:07:21 AM 32 0.0 3.0 47 64 71.6 62.0 29.935 7.41 0.0 0 0.00 0.00 0.00 0.00
09/05/26 3:08:34 AM 30 0.0 3.0 47 64 71.6 62.0 29.935 7.41 0.0 0 0.00 0.00 0.00 0.00
09/05/26 3:09:25 AM 29 0.0 3.0 47 64 71.6 62.0 29.934 7.41 0.0 0 0.00 0.00 0.00 0.00
09/05/26 3:10:17 AM 31 0.0 3.0 47 64 71.5 62.0 29.935 7.41 0.0 0 0.00 0.00 0.00 0.00
09/05/26 3:11:24 AM 32 0.0 3.0 47 64 71.5 62.0 29.932 7.41 0.0 0 0.00 0.00 0.00 0.00
09/05/26 3:12:18 AM 30 0.0 3.0 47 64 71.5 61.9 29.934 7.41 0.0 0 0.00 0.00 0.00 0.00
09/05/26 3:13:28 AM 26 0.0 3.0 47 64 71.5 61.9 29.933 7.41 0.0 0 0.00 0.00 0.00 0.00
09/05/26 3:14:23 AM 28 0.0 3.0 47 64 71.5 61.8 29.935 7.41 0.0 0 0.00 0.00 0.00 0.00
09/05/26 3:15:57 AM 26 0.0 3.0 47 64 71.5 61.8 29.933 7.41 0.0 0 0.00 0.00 0.00 0.00
09/05/26 3:16:24 AM 22 0.0 3.0 47 64 71.5 61.8 29.935 7.41 0.0 0 0.00 0.00 0.00 0.00
09/05/26 3:17:34 AM 29 0.0 3.0 47 64 71.5 61.7 29.933 7.41 0.0 0 0.00 0.00 0.00 0.00
09/05/26 3:18:26 AM 32 0.0 3.0 47 64 71.5 61.6 29.933 7.41 0.0 0 0.00 0.00 0.00 0.00
09/05/26 3:19:17 AM 32 0.0 3.0 47 64 71.5 61.6 29.930 7.41 0.0 0 0.00 0.00 0.00 0.00
09/05/26 3:20:30 AM 31 0.0 3.0 47 65 71.5 61.6 29.931 7.41 0.0 0 0.00 0.00 0.00 0.00
09/05/26 3:21:22 AM 34 0.0 3.0 47 65 71.5 61.5 29.932 7.41 0.0 0 0.00 0.00 0.00 0.00
09/05/26 3:22:32 AM 32 0.0 3.0 47 65 71.5 61.5 29.932 7.41 0.0 0 0.00 0.00 0.00 0.00
09/05/26 3:23:23 AM 32 0.0 3.0 47 65 71.5 61.5 29.933 7.41 0.0 0 0.00 0.00 0.00 0.00
09/05/26 3:24:36 AM 29 0.0 3.0 47 65 71.5 61.5 29.931 7.41 0.0 0 0.00 0.00 0.00 0.00
09/05/26 3:25:28 AM 32 0.0 3.0 47 65 71.5 61.5 29.932 7.41 0.0 0 0.00 0.00 0.00 0.00
09/05/26 3:26:19 AM 28 0.0 3.0 47 65 71.4 61.4 29.931 7.41 0.0 0 0.00 0.00 0.00 0.00
09/05/26 3:27:29 AM 29 0.0 3.0 47 65 71.4 61.4 29.933 7.41 0.0 0 0.00 0.00 0.00 0.00
09/05/26 3:28:21 AM 28 0.0 3.0 47 65 71.4 61.4 29.930 7.41 0.0 0 0.00 0.00 0.00 0.00
09/05/26 3:29:33 AM 29 0.0 3.0 47 66 71.4 61.4 29.930 7.41 0.0 0 0.00 0.00 0.00 0.00
09/05/26 3:30:25 AM 31 0.0 3.0 47 66 71.4 61.4 29.931 7.41 0.0 0 0.00 0.00 0.00 0.00
09/05/26 3:31:17 AM 34 0.0 3.0 47 66 71.4 61.4 29.931 7.41 0.0 0 0.00 0.00 0.00 0.00
09/05/26 3:32:24 AM 29 0.0 3.0 47 66 71.5 61.4 29.931 7.41 0.0 0 0.00 0.00 0.00 0.00
09/05/26 3:33:36 AM 30 0.0 3.0 47 66 71.5 61.4 29.932 7.41 0.0 0 0.00 0.00 0.00 0.00
09/05/26 3:34:28 AM 26 0.0 3.0 47 67 71.4 61.4 29.931 7.41 0.0 0 0.00 0.00 0.00 0.00
09/05/26 3:35:20 AM 26 0.0 3.0 47 67 71.4 61.4 29.932 7.41 0.0 0 0.00 0.00 0.00 0.00
09/05/26 3:36:33 AM 32 0.0 3.0 47 67 71.4 61.4 29.932 7.41 0.0 0 0.00 0.00 0.00 0.00
09/05/26 3:37:27 AM 28 0.0 3.0 47 67 71.4 61.4 29.932 7.41 0.0 0 0.00 0.00 0.00 0.00
09/05/26 3:38:34 AM 30 0.0 3.0 47 67 71.4 61.4 29.930 7.41 0.0 0 0.00 0.00 0.00 0.00
09/05/26 3:39:26 AM 28 0.0 3.0 47 67 71.4 61.5 29.929 7.41 0.0 0 0.00 0.00 0.00 0.00
09/05/26 3:40:17 AM 28 0.0 3.0 47 67 71.4 61.4 29.931 7.41 0.0 0 0.00 0.00 0.00 0.00
09/05/26 3:41:30 AM 34 0.0 3.0 47 66 71.4 61.4 29.931 7.41 0.0 0 0.00 0.00 0.00 0.00
09/05/26 3:42:22 AM 26 0.0 3.0 47 66 71.4 61.4 29.932 7.41 0.0 0 0.00 0.00 0.00 0.00
09/05/26 3:43:29 AM 25 0.0 3.0 47 66 71.4 61.4 29.930 7.41 0.0 0 0.00 0.00 0.00 0.00
09/05/26 3:44:20 AM 34 0.0 3.0 47 66 71.4 61.4 29.931 7.41 0.0 0 0.00 0.00 0.00 0.00
09/05/26 3:45:54 AM 32 0.0 3.0 47 67 71.4 61.4 29.932 7.41 0.0 0 0.00 0.00 0.00 0.00
09/05/26 3:46:25 AM 26 0.0 3.0 47 67 71.3 61.4 29.931 7.41 0.0 0 0.00 0.00 0.00 0.00
09/05/26 3:47:20 AM 32 0.0 3.0 47 67 71.4 61.4 29.930 7.41 0.0 0 0.00 0.00 0.00 0.00
09/05/26 3:48:29 AM 32 0.0 3.0 47 67 71.4 61.4 29.930 7.41 0.0 0 0.00 0.00 0.00 0.00
09/05/26 3:49:18 AM 25 0.0 3.0 47 67 71.4 61.4 29.929 7.41 0.0 0 0.00 0.00 0.00 0.00
09/05/26 3:50:31 AM 29 0.0 3.0 47 67 71.3 61.3 29.929 7.41 0.0 0 0.00 0.00 0.00 0.00
09/05/26 3:51:23 AM 29 0.0 3.0 47 67 71.4 61.3 29.927 7.41 0.0 0 0.00 0.00 0.00 0.00
09/05/26 3:52:35 AM 31 0.0 3.0 47 66 71.4 61.3 29.929 7.41 0.0 0 0.00 0.00 0.00 0.00
09/05/26 3:53:27 AM 29 0.0 3.0 47 66 71.4 61.2 29.929 7.41 0.0 0 0.00 0.00 0.00 0.00
09/05/26 3:54:34 AM 31 0.0 3.0 47 66 71.3 61.3 29.929 7.41 0.0 0 0.00 0.00 0.00 0.00
09/05/26 3:55:25 AM 29 0.0 3.0 47 66 71.4 61.2 29.927 7.41 0.0 0 0.00 0.00 0.00 0.00
09/05/26 3:56:17 AM 34 0.0 3.0 47 66 71.3 61.2 29.929 7.41 0.0 0 0.00 0.00 0.00 0.00
09/05/26 3:57:30 AM 32 0.0 3.0 47 66 71.3 61.2 29.930 7.41 0.0 0 0.00 0.00 0.00 0.00
09/05/26 3:58:22 AM 32 0.0 3.0 47 66 71.3 61.1 29.927 7.41 0.0 0 0.00 0.00 0.00 0.00
09/05/26 3:59:28 AM 26 0.0 3.0 47 66 71.3 61.1 29.929 7.41 0.0 0 0.00 0.00 0.00 0.00
09/05/26 4:00:23 AM 32 0.0 3.0 47 65 71.3 61.0 29.927 7.41 0.0 0 0.00 0.00 0.00 0.00
09/05/26 4:01:33 AM 32 0.0 3.0 47 66 71.3 60.9 29.930 7.41 0.0 0 0.00 0.00 0.00 0.00
09/05/26 4:02:24 AM 26 0.0 3.0 47 66 71.3 60.9 29.926 7.41 0.0 0 0.00 0.00 0.00 0.00
09/05/26 4:03:16 AM 28 0.0 3.0 47 66 71.3 60.8 29.928 7.41 0.0 0 0.00 0.00 0.00 0.00
09/05/26 4:04:32 AM 31 0.0 3.0 47 66 71.3 60.8 29.929 7.41 0.0 0 0.00 0.00 0.00 0.00
09/05/26 4:05:18 AM 32 0.0 3.0 47 66 71.3 60.8 29.928 7.41 0.0 0 0.00 0.00 0.00 0.00
09/05/26 4:06:30 AM 31 0.0 3.0 47 66 71.3 60.7 29.929 7.41 0.0 0 0.00 0.00 0.00 0.00
09/05/26 4:07:22 AM 30 0.0 3.0 47 66 71.3 60.7 29.929 7.41 0.0 0 0.00 0.00 0.00 0.00
09/05/26 4:08:35 AM 29 0.0 3.0 47 66 71.3 60.7 29.929 7.41 0.0 0 0.00 0.00 0.00 0.00
09/05/26 4:09:27 AM 30 0.0 3.0 47 66 71.3 60.6 29.927 7.41 0.0 0 0.00 0.00 0.00 0.00
09/05/26 4:10:33 AM 32 0.0 3.0 47 66 71.3 60.6 29.928 7.41 0.0 0 0.00 0.00 0.00 0.00
09/05/26 4:11:25 AM 28 0.0 3.0 47 66 71.3 60.5 29.928 7.41 0.0 0 0.00 0.00 0.00 0.00
09/05/26 4:12:20 AM 32 0.0 3.0 47 66 71.3 60.5 29.926 7.41 0.0 0 0.00 0.00 0.00 0.00
09/05/26 4:13:32 AM 32 0.0 3.0 47 66 71.3 60.4 29.926 7.41 0.0 0 0.00 0.00 0.00 0.00
09/05/26 4:14:24 AM 29 0.0 3.0 47 66 71.3 60.4 29.927 7.41 0.0 0 0.00 0.00 0.00 0.00
09/05/26 4:15:40 AM 29 0.0 3.0 47 66 71.3 60.3 29.926 7.41 0.0 0 0.00 0.00 0.00 0.00
09/05/26 4:16:26 AM 34 0.0 3.0 47 66 71.3 60.3 29.927 7.41 0.0 0 0.00 0.00 0.00 0.00
09/05/26 4:17:35 AM 28 0.0 3.0 47 66 71.3 60.3 29.925 7.41 0.0 0 0.00 0.00 0.00 0.00
09/05/26 4:18:27 AM 26 0.0 3.0 47 66 71.3 60.2 29.927 7.41 0.0 0 0.00 0.00 0.00 0.00
09/05/26 4:19:19 AM 30 0.0 3.0 47 66 71.3 60.2 29.924 7.41 0.0 0 0.00 0.00 0.00 0.00
09/05/26 4:20:32 AM 26 0.0 3.0 47 66 71.2 60.2 29.925 7.41 0.0 0 0.00 0.00 0.00 0.00
09/05/26 4:21:20 AM 26 0.0 3.0 47 66 71.2 60.1 29.924 7.41 0.0 0 0.00 0.00 0.00 0.00
09/05/26 4:22:30 AM 32 0.0 3.0 47 66 71.3 60.1 29.925 7.41 0.0 0 0.00 0.00 0.00 0.00
09/05/26 4:23:25 AM 28 0.0 3.0 47 66 71.2 60.1 29.925 7.41 0.0 0 0.00 0.00 0.00 0.00
09/05/26 4:24:35 AM 30 0.0 3.0 47 66 71.2 60.0 29.925 7.41 0.0 0 0.00 0.00 0.00 0.00
09/05/26 4:25:26 AM 31 0.0 3.0 47 66 71.2 60.0 29.923 7.41 0.0 0 0.00 0.00 0.00 0.00
09/05/26 4:26:18 AM 28 0.0 3.0 47 66 71.2 60.0 29.924 7.41 0.0 0 0.00 0.00 0.00 0.00
09/05/26 4:27:28 AM 31 0.0 3.0 47 66 71.2 60.0 29.923 7.41 0.0 0 0.00 0.00 0.00 0.00
09/05/26 4:28:19 AM 28 0.0 3.0 47 66 71.2 60.0 29.925 7.41 0.0 0 0.00 0.00 0.00 0.00
09/05/26 4:29:32 AM 30 0.0 3.0 47 67 71.2 60.0 29.924 7.41 0.0 0 0.00 0.00 0.00 0.00
09/05/26 4:30:24 AM 31 0.0 3.0 47 66 71.1 60.0 29.924 7.41 0.0 0 0.00 0.00 0.00 0.00
09/05/26 4:31:37 AM 32 0.0 3.0 47 66 71.1 60.0 29.924 7.41 0.0 0 0.00 0.00 0.00 0.00
09/05/26 4:32:22 AM 32 0.0 3.0 47 66 71.2 60.0 29.926 7.41 0.0 0 0.00 0.00 0.00 0.00
09/05/26 4:33:35 AM 30 0.0 3.0 47 66 71.1 60.0 29.926 7.41 0.0 0 0.00 0.00 0.00 0.00
09/05/26 4:34:27 AM 29 0.0 3.0 47 66 71.1 60.0 29.927 7.41 0.0 0 0.00 0.00 0.00 0.00
09/05/26 4:35:22 AM 28 0.0 3.0 47 66 71.1 60.0 29.927 7.41 0.0 0 0.00 0.00 0.00 0.00
09/05/26 4:36:31 AM 30 0.0 3.0 47 66 71.1 60.0 29.927 7.41 0.0 0 0.00 0.00 0.00 0.00
09/05/26 4:37:20 AM 32 0.0 3.0 47 66 71.1 59.9 29.929 7.41 0.0 0 0.00 0.00 0.00 0.00
09/05/26 4:38:33 AM 29 0.0 3.0 47 66 71.1 59.9 29.925 7.41 0.0 0 0.00 0.00 0.00 0.00
09/05/26 4:39:25 AM 31 0.0 3.0 47 66 71.1 59.9 29.927 7.41 0.0 0 0.00 0.00 0.00 0.00
09/05/26 4:40:16 AM 29 0.0 3.0 47 66 71.1 59.9 29.928 7.41 0.0 0 0.00 0.00 0.00 0.00
09/05/26 4:41:29 AM 26 0.0 3.0 47 67 71.1 59.9 29.927 7.41 0.0 0 0.00 0.00 0.00 0.00
09/05/26 4:42:21 AM 31 0.0 3.0 47 67 71.1 59.9 29.926 7.41 0.0 0 0.00 0.00 0.00 0.00
09/05/26 4:43:28 AM 28 0.0 3.0 47 67 71.1 59.8 29.926 7.41 0.0 0 0.00 0.00 0.00 0.00
09/05/26 4:44:19 AM 32 0.0 3.0 47 67 71.1 59.8 29.927 7.41 0.0 0 0.00 0.00 0.00 0.00
09/05/26 4:45:32 AM 26 0.0 3.0 47 67 71.1 59.8 29.926 7.41 0.0 0 0.00 0.00 0.00 0.00
09/05/26 4:46:24 AM 28 0.0 3.0 47 67 71.1 59.8 29.927 7.41 0.0 0 0.00 0.00 0.00 0.00
09/05/26 4:47:37 AM 31 0.0 3.0 47 67 71.1 59.8 29.928 7.41 0.0 0 0.00 0.00 0.00 0.00
09/05/26 4:48:22 AM 31 0.0 3.0 47 67 71.0 59.7 29.929 7.41 0.0 0 0.00 0.00 0.00 0.00
09/05/26 4:49:35 AM 28 0.0 3.0 47 66 71.1 59.6 29.927 7.41 0.0 0 0.00 0.00 0.00 0.00
09/05/26 4:50:27 AM 30 0.0 3.0 47 66 71.1 59.6 29.926 7.41 0.0 0 0.00 0.00 0.00 0.00
09/05/26 4:51:19 AM 34 0.0 3.0 47 66 71.0 59.6 29.926 7.41 0.0 0 0.00 0.00 0.00 0.00
09/05/26 4:52:31 AM 32 0.0 3.0 47 65 71.0 59.5 29.925 7.41 0.0 0 0.00 0.00 0.00 0.00
09/05/26 4:53:17 AM 30 0.0 3.0 47 65 71.0 59.5 29.928 7.41 0.0 0 0.00 0.00 0.00 0.00
09/05/26 4:54:30 AM 29 0.0 3.0 47 65 71.0 59.5 29.929 7.41 0.0 0 0.00 0.00 0.00 0.00
09/05/26 4:55:25 AM 32 0.0 3.0 47 65 71.0 59.5 29.928 7.41 0.0 0 0.00 0.00 0.00 0.00
09/05/26 4:56:34 AM 32 0.0 3.0 47 65 71.0 59.4 29.928 7.41 0.0 0 0.00 0.00 0.00 0.00
09/05/26 4:57:29 AM 29 0.0 3.0 47 65 71.0 59.5 29.927 7.41 0.0 0 0.00 0.00 0.00 0.00
09/05/26 4:58:18 AM 29 0.0 3.0 47 65 71.0 59.5 29.928 7.41 0.0 0 0.00 0.00 0.00 0.00
09/05/26 4:59:27 AM 34 0.0 3.0 47 65 71.0 59.4 29.927 7.41 0.0 0 0.00 0.00 0.00 0.00
09/05/26 5:00:19 AM 32 0.0 3.0 47 65 71.0 59.5 29.927 7.41 0.0 0 0.00 0.00 0.00 0.00
09/05/26 5:01:32 AM 31 0.0 3.0 47 65 71.0 59.5 29.927 7.41 0.0 0 0.00 0.00 0.00 0.00
09/05/26 5:02:21 AM 28 0.0 3.0 47 65 71.0 59.5 29.926 7.41 0.0 0 0.00 0.00 0.00 0.00
09/05/26 5:03:34 AM 29 0.0 3.0 47 65 71.0 59.5 29.927 7.41 0.0 0 0.00 0.00 0.00 0.00
09/05/26 5:04:22 AM 34 0.0 3.0 47 65 71.0 59.4 29.923 7.41 0.0 0 0.00 0.00 0.00 0.00
09/05/26 5:05:32 AM 30 0.0 3.0 47 64 70.9 59.4 29.925 7.41 0.0 0 0.00 0.00 0.00 0.00
09/05/26 5:06:27 AM 28 0.0 3.0 47 64 70.9 59.4 29.925 7.41 0.0 0 0.00 0.00 0.00 0.00
09/05/26 5:07:18 AM 32 0.0 3.0 47 64 70.9 59.4 29.925 7.41 0.0 0 0.00 0.00 0.00 0.00
09/05/26 5:08:31 AM 32 0.0 3.0 47 63 70.8 59.4 29.926 7.41 0.0 0 0.00 0.00 0.00 0.00
09/05/26 5:09:20 AM 28 0.0 3.0 47 63 70.7 59.4 29.928 7.41 0.0 0 0.00 0.00 0.00 0.00
09/05/26 5:10:33 AM 31 0.0 3.0 47 63 70.7 59.4 29.926 7.41 0.0 0 0.00 0.00 0.00 0.00
09/05/26 5:11:24 AM 29 0.0 3.0 47 63 70.6 59.4 29.927 7.41 0.0 0 0.00 0.00 0.00 0.00
09/05/26 5:12:34 AM 30 0.0 3.0 47 63 70.6 59.4 29.926 7.41 0.0 0 0.00 0.00 0.00 0.00
09/05/26 5:13:26 AM 32 0.0 3.0 47 63 70.5 59.4 29.924 7.41 0.0 0 0.00 0.00 0.00 0.00
09/05/26 5:14:18 AM 30 0.0 3.0 47 63 70.4 59.3 29.925 7.41 0.0 0 0.00 0.00 0.00 0.00
09/05/26 5:15:27 AM 32 0.0 3.0 47 63 70.3 59.3 29.923 7.41 0.0 0 0.00 0.00 0.00 0.00
09/05/26 5:16:19 AM 31 0.0 3.0 47 63 70.3 59.3 29.923 7.41 0.0 0 0.00 0.00 0.00 0.00
09/05/26 5:17:32 AM 29 0.0 3.0 47 63 70.2 59.3 29.926 7.41 0.0 0 0.00 0.00 0.00 0.00
09/05/26 5:18:24 AM 30 0.0 3.0 47 63 70.1 59.3 29.925 7.41 0.0 0 0.00 0.00 0.00 0.00
09/05/26 5:19:33 AM 34 0.0 3.0 47 63 70.1 59.3 29.927 7.41 0.0 0 0.00 0.00 0.00 0.00
09/05/26 5:20:22 AM 28 0.0 3.0 47 64 70.0 59.3 29.924 7.41 0.0 0 0.00 0.00 0.00 0.00
09/05/26 5:21:35 AM 32 0.0 3.0 47 64 69.9 59.2 29.925 7.41 0.0 0 0.00 0.00 0.00 0.00
09/05/26 5:22:27 AM 30 0.0 3.0 47 64 70.0 59.2 29.927 7.41 0.0 0 0.00 0.00 0.00 0.00
09/05/26 5:23:18 AM 34 0.0 3.0 47 64 69.9 59.2 29.925 7.41 0.0 0 0.00 0.00 0.00 0.00
09/05/26 5:24:31 AM 30 0.0 3.0 47 65 69.7 59.1 29.928 7.41 0.0 0 0.00 0.00 0.00 0.00
09/05/26 5:25:17 AM 28 0.0 3.0 47 65 69.7 59.1 29.926 7.41 0.0 0 0.00 0.00 0.00 0.00
09/05/26 5:26:30 AM 28 0.0 3.0 47 65 69.7 59.1 29.927 7.41 0.0 0 0.00 0.00 0.00 0.00
09/05/26 5:27:22 AM 32 0.0 3.0 47 65 69.6 59.1 29.925 7.41 0.0 0 0.00 0.00 0.00 0.00
09/05/26 5:28:34 AM 30 0.0 3.0 47 65 69.6 59.0 29.927 7.41 0.0 0 0.00 0.00 0.00 0.00
09/05/26 5:29:26 AM 28 0.0 3.0 47 65 69.5 59.0 29.926 7.41 0.0 0 0.00 0.00 0.00 0.00
09/05/26 5:30:18 AM 28 0.0 3.0 47 65 69.4 59.0 29.924 7.41 0.0 0 0.00 0.00 0.00 0.00
09/05/26 5:31:25 AM 29 0.0 3.0 47 65 69.4 58.9 29.926 7.41 0.0 0 0.00 0.00 0.00 0.00
09/05/26 5:32:16 AM 32 0.0 3.0 47 65 69.3 58.9 29.924 7.41 0.0 0 0.00 0.00 0.00 0.00
09/05/26 5:33:29 AM 32 0.0 3.0 47 65 69.3 58.9 29.923 7.41 0.0 0 0.00 0.00 0.00 0.00
09/05/26 5:34:21 AM 31 0.0 3.0 47 65 69.2 58.9 29.925 7.41 0.0 0 0.00 0.00 0.00 0.00
09/05/26 5:35:34 AM 34 0.0 3.0 47 66 69.1 58.8 29.923 7.41 0.0 0 0.00 0.00 0.00 0.00
09/05/26 5:36:22 AM 32 0.0 3.0 47 65 69.0 58.8 29.926 7.41 0.0 0 0.00 0.00 0.00 0.00
09/05/26 5:37:35 AM 31 0.0 3.0 47 65 69.0 58.7 29.928 7.41 0.0 0 0.00 0.00 0.00 0.00
09/05/26 5:38:24 AM 29 0.0 3.0 47 65 68.9 58.7 29.925 7.41 0.0 0 0.00 0.00 0.00 0.00
09/05/26 5:39:16 AM 26 0.0 3.0 47 65 68.9 58.7 29.927 7.41 0.0 0 0.00 0.00 0.00 0.00
09/05/26 5:40:28 AM 28 0.0 3.0 47 65 68.8 58.7 29.925 7.41 0.0 0 0.00 0.00 0.00 0.00
09/05/26 5:41:17 AM 29 0.0 3.0 47 65 68.8 58.7 29.925 7.41 0.0 0 0.00 0.00 0.00 0.00
09/05/26 5:42:27 AM 34 0.0 3.0 47 65 68.7 58.6 29.926 7.41 0.0 0 0.00 0.00 0.00 0.00
09/05/26 5:43:22 AM 30 0.0 3.0 47 65 68.7 58.6 29.927 7.41 0.0 0 0.00 0.00 0.00 0.00
09/05/26 5:44:35 AM 28 0.0 3.0 47 65 68.6 58.6 29.925 7.41 0.0 0 0.00 0.00 0.00 0.00
09/05/26 5:45:50 AM 32 0.0 3.0 47 65 68.6 58.6 29.925 7.41 0.0 0 0.00 0.00 0.00 0.00
09/05/26 5:46:18 AM 30 0.0 3.0 47 64 68.6 58.6 29.926 7.41 0.0 0 0.00 0.00 0.00 0.00
09/05/26 5:47:25 AM 30 0.0 3.0 47 64 68.6 58.6 29.928 7.41 0.0 0 0.00 0.00 0.00 0.00
09/05/26 5:48:16 AM 34 0.0 3.0 47 64 68.5 58.6 29.928 7.41 0.0 0 0.00 0.00 0.00 0.00
09/05/26 5:49:29 AM 31 0.0 3.0 47 64 68.4 58.6 29.929 7.41 0.0 0 0.00 0.00 0.00 0.00
09/05/26 5:50:21 AM 30 0.0 3.0 47 64 68.4 58.6 29.926 7.41 0.0 0 0.00 0.00 0.00 0.00
09/05/26 5:51:34 AM 32 0.0 3.0 47 63 68.4 58.6 29.929 7.41 0.0 0 0.00 0.00 0.00 0.00
09/05/26 5:52:22 AM 34 0.0 3.0 47 63 68.3 58.6 29.927 7.41 0.0 0 0.00 0.00 0.00 0.00
09/05/26 5:53:35 AM 32 0.0 3.0 47 63 68.4 58.6 29.930 7.41 0.0 0 0.00 0.00 0.00 0.00
09/05/26 5:54:27 AM 34 0.0 3.0 47 63 68.3 58.6 29.928 7.41 0.0 0 0.00 0.00 0.00 0.00
09/05/26 5:55:19 AM 31 0.0 3.0 47 63 68.3 58.6 29.929 7.41 0.0 0 0.00 0.00 0.00 0.00
09/05/26 5:56:32 AM 31 0.0 3.0 47 63 68.3 58.6 29.929 7.41 0.0 0 0.00 0.00 0.00 0.00
09/05/26 5:57:20 AM 31 0.0 3.0 47 63 68.2 58.6 29.931 7.41 0.0 0 0.00 0.00 0.00 0.00
09/05/26 5:58:30 AM 32 0.0 3.0 47 63 68.2 58.6 29.930 7.41 0.0 0 0.00 0.00 0.00 0.00
09/05/26 5:59:19 AM 26 0.0 3.0 47 63 68.2 58.6 29.931 7.41 0.0 0 0.00 0.00 0.00 0.00
09/05/26 6:00:56 AM 34 0.0 3.0 47 63 68.2 58.6 29.931 7.41 0.0 0 0.00 0.00 0.00 0.00
09/05/26 6:01:23 AM 28 0.0 3.0 47 63 68.1 58.6 29.931 7.41 0.0 0 0.00 0.00 0.00 0.00
09/05/26 6:02:18 AM 32 0.0 3.0 47 63 68.1 58.6 29.931 7.41 0.0 0 0.00 0.00 0.00 0.00
09/05/26 6:03:25 AM 22 0.0 3.0 47 63 68.0 58.6 29.931 7.41 0.0 0 0.00 0.00 0.00 0.00
09/05/26 6:04:17 AM 34 0.0 3.0 47 63 68.1 58.5 29.929 7.41 0.0 0 0.00 0.00 0.00 0.00
09/05/26 6:05:30 AM 29 0.0 3.0 47 63 68.0 58.5 29.929 7.41 0.0 0 0.00 0.00 0.00 0.00
09/05/26 6:06:22 AM 34 0.0 3.0 47 64 68.0 58.5 29.929 7.41 0.0 0 0.00 0.00 0.00 0.00
09/05/26 6:07:34 AM 28 0.0 3.0 47 63 68.0 58.5 29.932 7.41 0.0 0 0.00 0.00 0.00 0.00
09/05/26 6:08:26 AM 30 0.0 3.0 47 63 67.9 58.5 29.930 7.41 0.0 0 0.00 0.00 0.00 0.00
09/05/26 6:09:33 AM 28 0.0 3.0 47 63 67.9 58.5 29.930 7.41 0.0 0 0.00 0.00 0.00 0.00
09/05/26 6:10:28 AM 26 0.0 3.0 47 63 67.9 58.5 29.931 7.41 0.0 0 0.00 0.00 0.00 0.00
09/05/26 6:11:19 AM 30 0.0 3.0 47 63 67.9 58.5 29.932 7.41 0.0 0 0.00 0.00 0.00 0.00
09/05/26 6:12:32 AM 32 0.0 3.0 47 63 67.9 58.5 29.931 7.41 0.0 0 0.00 0.00 0.00 0.00
09/05/26 6:13:24 AM 29 0.0 3.0 47 63 67.9 58.5 29.930 7.41 0.0 0 0.00 0.00 0.00 0.00
09/05/26 6:14:31 AM 34 0.0 3.0 47 62 67.8 58.6 29.930 7.41 0.0 0 0.00 0.00 0.00 0.00
09/05/26 6:15:25 AM 32 0.0 3.0 47 62 67.8 58.6 29.931 7.41 0.0 0 0.00 0.00 0.00 0.00
09/05/26 6:16:17 AM 27 0.0 3.0 47 62 67.8 58.7 29.932 7.41 0.0 0 0.00 0.00 0.00 0.00
09/05/26 6:17:30 AM 32 0.0 3.0 47 62 67.8 58.7 29.931 7.41 0.0 0 0.00 0.00 0.00 0.00
09/05/26 6:18:22 AM 35 0.0 3.0 47 62 67.8 58.8 29.932 7.41 0.0 0 0.00 0.00 0.00 0.00
09/05/26 6:19:29 AM 31 0.0 3.0 47 61 67.7 58.8 29.931 7.41 0.0 0 0.00 0.00 0.00 0.00
09/05/26 6:20:23 AM 31 0.0 3.0 47 61 67.7 58.9 29.933 7.41 0.0 0 0.00 0.00 0.00 0.00
09/05/26 6:21:33 AM 32 0.0 3.0 47 61 67.7 58.9 29.933 7.41 0.0 0 0.00 0.00 0.00 0.00
09/05/26 6:22:28 AM 31 0.0 3.0 47 61 67.7 58.9 29.932 7.41 0.0 0 0.00 0.00 0.00 0.00
09/05/26 6:23:17 AM 31 0.0 3.0 47 61 67.7 58.9 29.934 7.41 0.0 0 0.00 0.00 0.00 0.00
09/05/26 6:24:29 AM 35 0.0 3.0 47 61 67.7 58.9 29.934 7.41 0.0 0 0.00 0.00 0.00 0.00
09/05/26 6:25:18 AM 28 0.0 3.0 47 61 67.6 58.9 29.937 7.41 0.0 0 0.00 0.00 0.00 0.00
09/05/26 6:26:31 AM 32 0.0 3.0 47 61 67.6 59.0 29.934 7.41 0.0 0 0.00 0.00 0.00 0.00
09/05/26 6:27:23 AM 32 0.0 3.0 47 61 67.6 59.0 29.939 7.41 0.0 0 0.00 0.00 0.00 0.00
09/05/26 6:28:33 AM 29 0.0 3.0 47 61 67.6 58.9 29.939 7.41 0.0 0 0.00 0.00 0.00 0.00
09/05/26 6:29:25 AM 30 0.0 3.0 47 61 67.6 58.9 29.939 7.41 0.0 5 0.00 0.00 0.00 0.00
09/05/26 6:30:34 AM 34 0.0 3.0 47 61 67.5 58.9 29.937 7.41 0.0 5 0.00 0.00 0.00 0.00
09/05/26 6:31:26 AM 31 0.0 3.0 47 61 67.5 58.9 29.941 7.41 0.0 5 0.00 0.00 0.00 0.00
09/05/26 6:32:21 AM 30 0.0 3.0 47 60 67.5 58.9 29.941 7.41 0.0 5 0.00 0.00 0.00 0.00
09/05/26 6:33:31 AM 31 0.0 3.0 47 60 67.5 58.8 29.941 7.41 0.0 5 0.00 0.00 0.00 0.00
09/05/26 6:34:22 AM 32 0.0 3.0 47 60 67.4 58.8 29.942 7.41 0.0 5 0.00 0.00 0.00 0.00
09/05/26 6:35:29 AM 31 0.0 3.0 47 60 67.4 58.7 29.942 7.41 0.0 5 0.00 0.00 0.00 0.00
09/05/26 6:36:24 AM 29 0.0 3.0 47 60 67.4 58.7 29.941 7.41 0.0 7 0.00 0.00 0.00 0.00
09/05/26 6:37:34 AM 29 0.0 3.0 47 61 67.4 58.7 29.943 7.41 0.0 7 0.00 0.00 0.00 0.00
09/05/26 6:38:26 AM 34 0.0 3.0 47 61 67.3 58.7 29.942 7.41 0.0 7 0.00 0.00 0.00 0.00
09/05/26 6:39:18 AM 31 0.0 3.0 47 61 67.3 58.7 29.942 7.41 0.0 7 0.00 0.00 0.00 0.00
09/05/26 6:40:30 AM 31 0.0 3.0 47 61 67.3 58.7 29.945 7.41 0.0 7 0.00 0.00 0.00 0.00
09/05/26 6:41:19 AM 34 0.0 3.0 47 61 67.3 58.6 29.943 7.41 0.0 7 0.00 0.00 0.00 0.00
09/05/26 6:42:29 AM 34 0.0 3.0 47 61 67.3 58.6 29.944 7.41 0.0 9 0.00 0.00 0.00 0.00
09/05/26 6:43:24 AM 29 0.0 3.0 47 61 67.3 58.6 29.947 7.41 0.0 9 0.00 0.00 0.00 0.00
09/05/26 6:44:34 AM 28 0.0 3.0 47 61 67.2 58.6 29.947 7.41 0.0 9 0.00 0.00 0.00 0.00
09/05/26 6:45:46 AM 32 0.0 3.0 47 61 67.2 58.6 29.946 7.41 0.0 9 0.00 0.00 0.00 0.00
09/05/26 6:46:17 AM 32 0.0 3.0 47 61 67.2 58.6 29.947 7.41 0.0 11 0.00 0.00 0.00 0.00
09/05/26 6:47:27 AM 28 0.0 3.0 47 61 67.2 58.6 29.946 7.41 0.0 11 0.00 0.00 0.00 0.00
09/05/26 6:48:19 AM 28 0.0 3.0 47 61 67.2 58.5 29.947 7.41 0.0 11 0.00 0.00 0.00 0.00
09/05/26 6:49:32 AM 30 0.0 3.0 47 60 67.1 58.5 29.946 7.41 0.0 12 0.00 0.00 0.00 0.00
09/05/26 6:50:23 AM 34 0.0 3.0 47 60 67.1 58.5 29.948 7.41 0.0 12 0.00 0.00 0.00 0.00
09/05/26 6:51:36 AM 30 0.0 3.0 47 60 67.1 58.5 29.949 7.41 0.0 12 0.00 0.00 0.00 0.00
09/05/26 6:52:25 AM 32 0.0 3.0 47 60 67.1 58.4 29.945 7.41 0.0 14 0.00 0.00 0.00 0.00
09/05/26 6:53:35 AM 32 0.0 3.0 47 61 67.1 58.4 29.950 7.41 0.0 14 0.00 0.00 0.00 0.00
09/05/26 6:54:30 AM 32 0.0 3.0 47 61 67.1 58.4 29.949 7.41 0.0 19 0.00 0.00 0.00 0.00
09/05/26 6:55:21 AM 31 0.0 3.0 47 61 67.1 58.4 29.948 7.41 0.0 19 0.00 0.00 0.00 0.00
09/05/26 6:56:34 AM 26 0.0 3.0 47 61 67.0 58.5 29.946 7.41 0.0 19 0.00 0.00 0.00 0.00
09/05/26 6:57:20 AM 28 0.0 3.0 47 61 67.0 58.5 29.947 7.41 0.0 18 0.00 0.00 0.00 0.00
09/05/26 6:58:36 AM 31 0.0 3.0 47 61 67.0 58.5 29.946 7.41 0.0 21 0.00 0.00 0.00 0.00
09/05/26 6:59:25 AM 31 0.0 3.0 47 61 67.0 58.6 29.947 7.41 0.0 21 0.00 0.00 0.00 0.00
09/05/26 7:00:19 AM 30 0.0 3.0 47 61 67.0 58.6 29.948 7.41 0.0 23 0.00 0.00 0.00 0.00
09/05/26 7:01:32 AM 30 0.0 3.0 47 61 67.0 58.6 29.945 7.41 0.0 26 0.00 0.00 0.00 0.00
09/05/26 7:02:21 AM 35 0.0 3.0 47 61 67.0 58.7 29.948 7.41 0.0 26 0.00 0.00 0.00 0.00
09/05/26 7:03:31 AM 30 0.0 3.0 47 61 67.0 58.7 29.947 7.41 0.0 30 0.00 0.00 0.00 0.00
09/05/26 7:04:23 AM 32 0.0 3.0 47 62 67.0 58.7 29.946 7.41 0.0 30 0.00 0.00 0.00 0.00
09/05/26 7:05:35 AM 32 0.0 3.0 47 62 67.0 58.9 29.947 7.41 0.0 32 0.00 0.00 0.00 0.00
09/05/26 7:06:27 AM 34 0.0 3.0 47 62 67.0 58.9 29.943 7.41 0.0 35 0.00 0.00 0.00 0.00
09/05/26 7:07:19 AM 31 0.0 3.0 47 62 67.0 58.9 29.946 7.41 0.0 42 0.00 0.00 0.00 0.00
09/05/26 7:08:26 AM 31 0.0 3.0 47 62 67.0 59.0 29.946 7.41 0.0 42 0.00 0.00 0.00 0.00
09/05/26 7:09:18 AM 32 0.0 3.0 47 62 67.0 59.1 29.947 7.41 0.0 47 0.00 0.00 0.00 0.00
09/05/26 7:10:31 AM 32 0.0 3.0 47 62 67.0 59.2 29.945 7.41 0.0 40 0.00 0.00 0.00 0.00
09/05/26 7:11:22 AM 31 0.0 3.0 48 62 67.0 59.3 29.948 7.41 0.0 56 0.00 0.00 0.00 0.00
09/05/26 7:12:35 AM 34 0.0 3.0 48 62 66.9 59.4 29.946 7.41 0.0 56 0.00 0.00 0.00 0.00
09/05/26 7:13:21 AM 34 0.0 3.0 48 62 66.9 59.4 29.946 7.41 0.0 69 0.00 0.00 0.00 0.00
09/05/26 7:14:33 AM 31 0.0 3.0 48 62 66.9 59.6 29.944 7.41 0.0 70 0.00 0.00 0.00 0.00
09/05/26 7:15:28 AM 26 0.0 3.0 48 62 67.0 59.7 29.944 7.41 0.0 74 0.00 0.00 0.00 0.00
09/05/26 7:16:16 AM 31 0.0 3.0 48 62 66.9 59.8 29.946 7.41 0.0 76 0.00 0.00 0.00 0.00
09/05/26 7:17:32 AM 32 0.0 3.0 48 61 67.0 59.9 29.946 7.41 0.0 79 0.00 0.00 0.00 0.00
09/05/26 7:18:23 AM 30 0.0 3.0 48 61 67.0 60.0 29.947 7.41 0.0 83 0.00 0.00 0.00 0.00
09/05/26 7:19:33 AM 34 0.0 3.0 48 61 67.0 60.0 29.947 7.41 0.0 84 0.00 0.00 0.00 0.00
09/05/26 7:20:22 AM 31 0.0 3.0 48 61 67.0 60.2 29.945 7.41 0.0 88 0.00 0.00 0.00 0.00
09/05/26 7:21:35 AM 32 0.0 3.0 48 62 67.0 60.2 29.947 7.41 0.0 90 0.00 0.00 0.00 0.00
09/05/26 7:22:26 AM 34 0.0 3.0 48 62 67.0 60.3 29.949 7.41 0.0 93 0.00 0.00 0.00 0.00
09/05/26 7:23:18 AM 30 0.0 3.0 48 62 67.1 60.3 29.947 7.41 0.0 93 0.00 0.00 0.00 0.00
09/05/26 7:24:25 AM 31 0.0 3.0 48 62 67.1 60.4 29.948 7.41 0.0 104 0.00 0.00 0.00 0.00
09/05/26 7:25:20 AM 35 0.0 3.0 48 62 67.1 60.5 29.945 7.41 0.0 104 0.00 0.00 0.00 0.00
09/05/26 7:26:33 AM 27 0.0 3.0 48 62 67.1 60.6 29.943 7.41 0.0 111 0.00 0.00 0.00 0.00
09/05/26 7:27:25 AM 30 0.0 3.0 48 63 67.1 60.7 29.946 7.41 0.0 111 0.00 0.00 0.00 0.00
09/05/26 7:28:38 AM 31 0.0 3.0 48 63 67.1 60.8 29.944 7.41 0.0 118 0.00 0.00 0.00 0.00
09/05/26 7:29:26 AM 32 0.0 3.0 48 63 67.2 60.9 29.946 7.41 0.0 121 0.00 0.00 0.00 0.00
09/05/26 7:30:18 AM 31 0.0 3.0 48 63 67.2 61.0 29.945 7.41 0.0 125 0.00 0.00 0.00 0.00
09/05/26 7:31:28 AM 34 0.0 3.0 48 62 67.2 61.2 29.945 7.41 0.0 127 0.00 0.00 0.00 0.00
09/05/26 7:32:20 AM 30 0.0 3.0 48 62 67.3 61.3 29.945 7.41 0.0 130 0.00 0.00 0.00 0.00
09/05/26 7:33:29 AM 32 0.0 3.0 48 62 67.3 61.4 29.945 7.41 0.0 130 0.00 0.00 0.00 0.00
09/05/26 7:34:21 AM 32 0.0 3.0 48 62 67.3 61.5 29.945 7.41 0.0 137 0.00 0.00 0.00 0.00
09/05/26 7:35:31 AM 31 0.0 3.0 48 62 67.3 61.6 29.946 7.41 0.0 141 0.00 0.00 0.00 0.00
09/05/26 7:36:23 AM 31 0.0 3.0 48 62 67.3 61.8 29.947 7.41 0.0 144 0.00 0.00 0.00 0.00
09/05/26 7:37:33 AM 28 0.0 3.0 48 62 67.3 62.0 29.947 7.41 0.0 151 0.00 0.00 0.00 0.00
09/05/26 7:38:28 AM 30 0.0 3.0 48 62 67.3 62.1 29.948 7.41 0.0 151 0.00 0.00 0.00 0.00
09/05/26 7:39:16 AM 28 0.0 3.0 48 62 67.4 62.2 29.949 7.41 0.0 155 0.00 0.00 0.00 0.00
09/05/26 7:40:26 AM 28 0.0 3.0 48 62 67.4 62.4 29.950 7.41 0.0 158 0.00 0.00 0.00 0.00
09/05/26 7:41:18 AM 32 0.0 3.0 48 62 67.5 62.5 29.948 7.41 0.0 158 0.00 0.00 0.00 0.00
09/05/26 7:42:28 AM 32 0.0 3.0 48 62 67.5 62.7 29.950 7.41 0.0 169 0.00 0.00 0.00 0.00
09/05/26 7:43:20 AM 31 0.0 3.0 48 62 67.5 62.9 29.947 7.41 0.0 172 0.00 0.00 0.00 0.00
09/05/26 7:44:36 AM 31 0.0 3.0 48 62 67.6 63.2 29.949 7.41 0.0 176 0.00 0.00 0.00 0.00
09/05/26 7:45:45 AM 34 0.0 3.0 48 62 67.6 63.3 29.950 7.41 0.0 179 0.00 0.00 0.00 0.00
09/05/26 7:46:34 AM 32 0.0 3.0 48 61 67.6 63.8 29.948 7.41 0.0 181 0.00 0.00 0.00 0.00
09/05/26 7:47:26 AM 30 0.0 3.0 48 61 67.7 64.0 29.947 7.41 0.0 183 0.00 0.00 0.00 0.00
09/05/26 7:48:18 AM 31 0.0 3.0 48 60 67.7 64.2 29.948 7.41 0.0 185 0.00 0.00 0.00 0.00
09/05/26 7:49:31 AM 28 0.0 3.0 48 59 67.7 64.5 29.947 7.41 0.0 185 0.00 0.00 0.00 0.00
09/05/26 7:50:22 AM 28 0.0 3.0 49 59 67.7 64.7 29.947 7.41 0.0 185 0.00 0.00 0.00 0.00
09/05/26 7:51:29 AM 28 0.0 3.0 49 59 67.8 65.0 29.948 7.41 0.0 185 0.00 0.00 0.00 0.00
09/05/26 7:52:21 AM 30 0.0 3.0 49 59 67.8 65.2 29.948 7.41 0.0 185 0.00 0.00 0.00 0.00
09/05/26 7:53:31 AM 28 0.0 3.0 49 58 67.8 65.7 29.949 7.41 0.0 183 0.00 0.00 0.00 0.00
09/05/26 7:54:26 AM 32 0.0 3.0 49 58 67.9 65.9 29.948 7.41 0.0 183 0.00 0.00 0.00 0.00
09/05/26 7:55:36 AM 32 0.0 3.0 49 57 67.9 66.2 29.951 7.41 0.0 181 0.00 0.00 0.00 0.00
09/05/26 7:56:21 AM 34 0.0 3.0 49 57 67.9 66.4 29.950 7.41 0.0 181 0.00 0.00 0.00 0.00
09/05/26 7:57:37 AM 30 0.0 3.0 49 57 68.0 66.6 29.949 7.41 0.0 181 0.00 0.00 0.00 0.00
09/05/26 7:58:29 AM 28 0.0 3.0 49 56 68.0 66.9 29.950 7.41 0.0 181 0.00 0.00 0.00 0.00
09/05/26 7:59:21 AM 32 0.0 3.0 49 55 68.0 67.1 29.950 7.41 0.0 181 0.00 0.00 0.00 0.00
09/05/26 8:00:37 AM 26 0.0 3.0 49 55 68.1 67.4 29.951 7.41 0.0 181 0.00 0.00 0.00 0.00
09/05/26 8:01:28 AM 26 0.0 3.0 49 54 68.1 67.6 29.950 7.41 0.5 183 0.00 0.00 0.00 0.00
09/05/26 8:02:35 AM 31 0.0 3.0 49 52 68.1 67.9 29.954 7.41 0.5 185 0.00 0.00 0.00 0.00
09/05/26 8:03:27 AM 28 0.0 3.0 49 52 68.1 68.2 29.950 7.41 0.5 188 0.00 0.00 0.00 0.00
09/05/26 8:04:19 AM 30 0.0 3.0 49 52 68.2 68.3 29.952 7.41 0.5 192 0.00 0.00 0.00 0.00
09/05/26 8:05:29 AM 31 0.0 3.0 49 53 68.2 68.8 29.952 7.41 0.5 200 0.00 0.00 0.00 0.00
09/05/26 8:06:21 AM 28 0.0 3.0 49 52 68.3 68.9 29.951 7.41 0.5 206 0.00 0.00 0.00 0.00
09/05/26 8:07:30 AM 28 0.0 3.0 49 52 68.3 69.2 29.953 7.41 0.5 211 0.00 0.00 0.00 0.00
09/05/26 8:08:22 AM 28 0.0 3.0 49 51 68.4 69.4 29.953 7.41 0.5 218 0.00 0.00 0.00 0.00
09/05/26 8:09:35 AM 26 0.0 3.0 49 50 68.4 69.5 29.954 7.41 0.6 234 0.00 0.00 0.00 0.00
09/05/26 8:10:27 AM 31 0.0 3.0 49 50 68.4 69.7 29.954 7.41 0.6 241 0.00 0.00 0.00 0.00
09/05/26 8:11:19 AM 32 0.0 3.0 49 49 68.4 69.9 29.953 7.41 0.6 251 0.00 0.00 0.00 0.00
09/05/26 8:12:26 AM 34 0.0 3.0 49 49 68.4 70.1 29.955 7.41 0.6 258 0.00 0.00 0.00 0.00
09/05/26 8:13:17 AM 30 0.0 3.0 49 49 68.5 70.4 29.954 7.41 0.6 267 0.00 0.00 0.00 0.00
09/05/26 8:14:30 AM 34 0.0 3.0 49 48 68.5 70.6 29.955 7.41 0.6 274 0.00 0.00 0.00 0.00
09/05/26 8:15:22 AM 29 0.0 3.0 49 47 68.5 70.8 29.954 7.41 0.6 279 0.00 0.00 0.00 0.00
09/05/26 8:16:32 AM 30 0.0 3.0 49 47 68.6 71.1 29.954 7.41 0.7 279 0.00 0.00 0.00 0.00
09/05/26 8:17:24 AM 32 0.0 3.0 49 47 68.7 71.3 29.955 7.41 0.7 288 0.00 0.00 0.00 0.00
09/05/26 8:18:34 AM 28 0.0 3.0 49 46 68.6 71.5 29.955 7.41 0.7 292 0.00 0.00 0.00 0.00
09/05/26 8:19:22 AM 31 0.0 3.0 49 45 68.7 71.6 29.955 7.41 0.7 294 0.00 0.00 0.00 0.00
09/05/26 8:20:35 AM 28 0.0 3.0 49 45 68.7 71.8 29.956 7.41 0.7 297 0.00 0.00 0.00 0.00
09/05/26 8:21:27 AM 25 0.0 3.0 49 44 68.7 72.0 29.956 7.41 0.7 297 0.00 0.00 0.00 0.00
09/05/26 8:22:19 AM 28 0.0 3.0 49 44 68.8 72.1 29.956 7.41 0.7 302 0.00 0.00 0.00 0.00
09/05/26 8:23:26 AM 27 0.0 3.0 49 44 68.8 72.2 29.956 7.41 0.7 306 0.00 0.00 0.00 0.00
09/05/26 8:24:21 AM 28 0.0 3.0 49 44 68.8 72.4 29.959 7.41 0.7 306 0.00 0.00 0.00 0.00
09/05/26 8:25:30 AM 32 0.0 3.0 49 43 68.9 72.5 29.960 7.41 0.8 316 0.00 0.00 0.00 0.00
09/05/26 8:26:22 AM 32 0.0 3.0 49 43 68.9 72.6 29.959 7.41 0.8 316 0.00 0.00 0.00 0.00
09/05/26 8:27:35 AM 28 0.0 3.0 49 43 68.9 72.7 29.960 7.41 0.8 322 0.00 0.00 0.00 0.00
09/05/26 8:28:24 AM 32 0.0 3.0 49 42 69.0 72.8 29.959 7.41 0.8 325 0.00 0.00 0.00 0.00
09/05/26 8:29:37 AM 29 0.0 3.0 49 43 69.0 73.0 29.958 7.41 0.8 325 0.00 0.00 0.00 0.00
09/05/26 8:30:50 AM 32 0.0 3.0 49 43 69.0 73.1 29.959 7.41 0.8 332 0.00 0.00 0.00 0.00
09/05/26 8:31:20 AM 28 0.0 3.0 49 44 69.0 73.2 29.958 7.41 0.9 334 0.00 0.00 0.00 0.00
09/05/26 8:32:33 AM 28 0.0 3.0 49 44 69.1 73.3 29.959 7.41 0.9 338 0.00 0.00 0.00 0.00
09/05/26 8:33:25 AM 29 0.0 3.0 49 44 69.1 73.4 29.959 7.41 0.9 341 0.00 0.00 0.00 0.00
09/05/26 8:34:32 AM 28 0.0 3.0 49 44 69.1 73.5 29.959 7.41 0.9 345 0.00 0.00 0.00 0.00
09/05/26 8:35:27 AM 29 0.0 3.0 49 44 69.2 73.6 29.959 7.41 0.9 348 0.00 0.00 0.00 0.00
09/05/26 8:36:18 AM 32 0.0 3.0 49 43 69.2 73.7 29.960 7.41 0.9 352 0.00 0.00 0.00 0.00
09/05/26 8:37:28 AM 31 0.0 3.0 49 43 69.2 73.9 29.961 7.41 0.9 355 0.00 0.00 0.00 0.00
09/05/26 8:38:23 AM 31 0.0 3.0 49 43 69.2 74.0 29.960 7.41 0.9 357 0.00 0.00 0.00 0.00
09/05/26 8:39:30 AM 32 0.0 3.0 49 43 69.2 74.0 29.963 7.41 0.9 364 0.00 0.00 0.00 0.00
09/05/26 8:40:22 AM 32 0.0 3.0 49 43 69.3 74.1 29.962 7.41 1.0 366 0.00 0.00 0.00 0.00
09/05/26 8:41:35 AM 31 0.0 3.0 49 43 69.4 74.3 29.959 7.41 1.0 367 0.00 0.00 0.00 0.00
09/05/26 8:42:27 AM 31 0.0 3.0 49 42 69.4 74.4 29.963 7.41 1.0 369 0.00 0.00 0.00 0.00
09/05/26 8:43:18 AM 29 0.0 3.0 49 42 69.4 74.4 29.963 7.41 1.0 371 0.00 0.00 0.00 0.00
09/05/26 8:44:28 AM 28 0.0 3.0 49 42 69.4 74.5 29.961 7.41 1.1 373 0.00 0.00 0.00 0.00
09/05/26 8:45:20 AM 26 0.0 3.0 49 42 69.4 74.5 29.960 7.41 1.1 376 0.00 0.00 0.00 0.00
09/05/26 8:46:30 AM 27 0.0 3.0 49 42 69.5 74.7 29.961 7.41 1.1 378 0.00 0.00 0.00 0.00
09/05/26 8:47:22 AM 30 0.0 3.0 49 41 69.5 74.8 29.960 7.41 1.1 378 0.00 0.00 0.00 0.00
09/05/26 8:48:35 AM 28 0.0 3.0 49 41 69.5 74.9 29.961 7.41 1.1 381 0.00 0.00 0.00 0.00
09/05/26 8:49:27 AM 30 0.0 3.0 49 40 69.6 75.0 29.960 7.41 1.2 385 0.00 0.00 0.00 0.00
09/05/26 8:50:33 AM 32 0.0 3.0 49 40 69.5 75.2 29.959 7.41 1.2 385 0.00 0.00 0.00 0.00
09/05/26 8:51:25 AM 28 0.0 3.0 49 40 69.6 75.3 29.958 7.41 1.2 387 0.00 0.00 0.00 0.00
09/05/26 8:52:20 AM 32 0.0 3.0 49 39 69.6 75.3 29.961 7.41 1.2 388 0.00 0.00 0.00 0.00
09/05/26 8:53:30 AM 27 0.0 3.0 49 39 69.6 75.5 29.960 7.41 1.2 388 0.00 0.00 0.00 0.00
09/05/26 8:54:22 AM 32 1.0 3.0 49 39 69.7 75.7 29.961 7.41 1.2 388 0.00 0.00 0.00 0.00
09/05/26 8:55:32 AM 31 2.0 3.0 49 39 69.7 76.0 29.961 7.41 1.3 392 0.00 0.00 0.00 0.00
09/05/26 8:56:24 AM 29 1.0 3.0 49 38 69.7 76.1 29.958 7.41 1.3 397 0.00 0.00 0.00 0.00
09/05/26 8:57:33 AM 31 2.0 3.0 49 38 69.8 76.3 29.962 7.41 1.3 396 0.00 0.00 0.00 0.00
09/05/26 8:58:28 AM 30 3.0 3.0 49 38 69.8 76.4 29.958 7.41 1.3 397 0.00 0.00 0.00 0.00
09/05/26 8:59:20 AM 29 2.0 3.0 49 37 69.9 76.5 29.962 7.41 1.3 397 0.00 0.00 0.00 0.00
09/05/26 9:00:54 AM 32 2.0 3.0 49 37 69.8 76.6 29.960 7.41 1.3 397 0.00 0.00 0.00 0.00
09/05/26 9:01:22 AM 30 1.0 3.0 49 37 69.9 76.7 29.958 7.41 1.4 399 0.00 0.00 0.00 0.00
09/05/26 9:02:32 AM 32 2.0 3.0 49 37 69.9 77.0 29.961 7.41 1.4 399 0.00 0.00 0.00 0.00
09/05/26 9:03:27 AM 30 3.0 3.0 49 37 70.0 77.0 29.959 7.41 1.4 397 0.00 0.00 0.00 0.00
09/05/26 9:04:18 AM 34 2.0 3.0 49 37 69.9 77.1 29.961 7.41 1.4 397 0.00 0.00 0.00 0.00
09/05/26 9:05:28 AM 31 2.0 3.0 49 35 70.0 77.2 29.960 7.41 1.4 396 0.00 0.00 0.00 0.00
09/05/26 9:06:20 AM 31 3.0 3.0 49 35 70.0 77.3 29.960 7.41 1.5 397 0.00 0.00 0.00 0.00
09/05/26 9:07:27 AM 28 2.0 3.0 49 35 70.0 77.3 29.961 7.41 1.5 397 0.00 0.00 0.00 0.00
09/05/26 9:08:19 AM 31 3.0 3.0 49 34 70.1 77.4 29.958 7.41 1.5 394 0.00 0.00 0.00 0.00
09/05/26 9:09:32 AM 31 2.0 3.0 49 34 70.1 77.5 29.957 7.41 1.5 396 0.00 0.00 0.00 0.00
09/05/26 9:10:24 AM 28 3.0 3.0 49 34 70.1 77.5 29.959 7.41 1.5 396 0.00 0.00 0.00 0.00
09/05/26 9:11:15 AM 28 0.0 3.0 49 35 70.2 77.6 29.960 7.41 1.5 396 0.00 0.00 0.00 0.00
09/05/26 9:12:25 AM 32 0.0 3.0 49 35 70.2 77.8 29.960 7.41 1.5 396 0.00 0.00 0.00 0.00
09/05/26 9:13:17 AM 30 0.0 3.0 49 35 70.2 77.9 29.958 7.41 1.6 396 0.00 0.00 0.00 0.00
09/05/26 9:14:30 AM 32 3.0 3.0 49 35 70.2 78.2 29.957 7.41 1.6 396 0.00 0.00 0.00 0.00
09/05/26 9:15:22 AM 28 2.0 4.0 49 34 70.2 78.3 29.959 7.41 1.7 396 0.00 0.00 0.00 0.00
09/05/26 9:16:35 AM 28 3.0 5.0 49 34 70.3 78.4 29.959 7.41 1.7 394 0.00 0.00 0.00 0.00
09/05/26 9:17:20 AM 31 2.0 5.0 49 34 70.4 78.6 29.960 7.41 1.7 394 0.00 0.00 0.00 0.00
09/05/26 9:18:33 AM 28 2.0 5.0 49 34 70.4 78.7 29.963 7.41 1.7 396 0.00 0.00 0.00 0.00
09/05/26 9:19:25 AM 30 2.0 5.0 49 34 70.4 78.9 29.961 7.41 1.7 396 0.00 0.00 0.00 0.00
09/05/26 9:20:17 AM 31 3.0 5.0 49 33 70.5 78.9 29.963 7.41 1.7 394 0.00 0.00 0.00 0.00
09/05/26 9:21:30 AM 31 2.0 5.0 49 32 70.4 79.1 29.961 7.41 1.7 394 0.00 0.00 0.00 0.00
09/05/26 9:22:22 AM 29 2.0 5.0 49 32 70.5 79.1 29.963 7.41 1.8 392 0.00 0.00 0.00 0.00
09/05/26 9:23:29 AM 30 0.0 5.0 49 33 70.5 79.2 29.962 7.41 1.8 392 0.00 0.00 0.00 0.00
09/05/26 9:24:24 AM 30 0.0 5.0 49 33 70.5 79.3 29.962 7.41 1.8 392 0.00 0.00 0.00 0.00
09/05/26 9:25:34 AM 30 0.0 5.0 49 33 70.6 79.4 29.964 7.41 1.9 394 0.00 0.00 0.00 0.00
09/05/26 9:26:26 AM 32 0.0 5.0 49 33 70.6 79.6 29.964 7.41 1.9 397 0.00 0.00 0.00 0.00
09/05/26 9:27:17 AM 28 3.0 5.0 49 33 70.6 79.7 29.963 7.41 1.9 397 0.00 0.00 0.00 0.00

University Police wind advisory reference

For campus closure information please call the campus Emergency Hotline at (909) 537-5999

© All rights reserved. Unauthorized duplication or distribution is prohibited

Never base important decisions on this or any weather information obtained from the Internet

California State University, San Bernardino
5500 University Parkway, San Bernardino, CA. 92407
Phone: (909) 537-5108, Email: Weather Webmaster
Last Updated: